Tracking 19212 objects as of 16-Jul-2018
HD Live streaming from Space Station
objects crossing your sky now

IRIDIUM 11

Track IRIDIUM 11 now!
10-day predictions
IRIDIUM 11 is classified as:


NORAD ID: 25578
Int'l Code: 1998-074B
Perigee: 769.3 km
Apogee: 771.1 km
Inclination: 86.4 °
Period: 100.1 minutes
Semi major axis: 7141 km
RCS: 3.1554 m2 (large)
Launch date: December 19, 1998
Source: United States (US)
Launch site: Taiyaun Space Center, China (TSC)
aabbcc
Your satellite tracking list
Your tracking list is empty




NASA's NSSDC Master Catalog

Two Line Element Set (TLE):
1 25578U 98074B   18196.64141360 +.00000150 +00000-0 +42564-4 0  9996
2 25578 086.4223 091.1843 0001254 080.3451 291.0037 14.38609110033835
Source of the keplerian elements: AFSPC